Content
SEND FEEDBACK

Daily
Averages
Monthly
Summary
Canada

CORNER BROOK, NEWFOUNDLAND


Home > North America > Canada > Newfoundland
Elevation: 16 feet     Latitude: 48 57N     Longitude: 057 57W

WEATHER
 
SELECT A DAY
Number of Records: 180,836;   Date Range: 1/1/95 - 7/28/14
 
SHARE

PRINT THIS DATA

[ ← Previous Day ]
WEATHER ALMANAC - APRIL 26, 2013
[ Next Day → ]
[ °C ]   °F
Weather ElementAverageHighLow
Temperature44.9 °F50 °F (1:30 am)33.8 °F (9:30 pm)
Dewpoint42.9 °F49 °F (3:30 pm)32 °F (10:30 pm)
Humidity91.9 %100 % (9:45 am)84 % (3:30 am)
Barometer30.40 in30.49 in (9:30 pm)30.23 in (2:30 am)
Wind Speed8.4 mph23 mph (9:30 pm)
Wind Gust27.6 mph (7:30 pm)
Weather ElementAverage
Visibility7 mi
Wind DirectionESE (113.3 °)

Weather ElementTotal
Precipitation---
Heating Degree Days23.1 (Base 65)
Averaged from 30 records on April 26, 2013
WEATHER CONDITIONS BREAKOUT
WIND DIRECTION BREAKOUT
WEATHER BY HOUR - APRIL 26, 2013
[ °C ]   °F
Local TimeTemperatureDewpointHumidityBarometerVisibilityWind DirectionWind SpeedGust SpeedPrecipitationEventsConditions
1:30 AM50.0 °F48.2 °F94 %30.25 in10.0 miSSE (160°)8.1 mphRainLight Rain Showers
2:30 AM50.0 °F46.4 °F87 %30.23 in10.0 miSSE (150°)5.8 mphRainLight Rain Showers
3:30 AM48.0 °F45.0 °F84 %30.25 in12.0 miSSW (210°)13.8 mphSnowLight Snow Showers
4:30 AM48.2 °F44.6 °F87 %30.28 in12.0 miWest (280°)3.5 mphRainLight Rain Showers
5:05 AM48.2 °F44.6 °F87 %30.30 in15.0 miSSW (210°)6.9 mphOvercast
5:30 AM48.2 °F44.6 °F87 %30.30 in15.0 miSSW (210°)5.8 mphOvercast
6:30 AM48.2 °F44.6 °F87 %30.33 in15.0 miCalmOvercast
7:30 AM46.4 °F44.6 °F93 %30.36 in15.0 miWest (260°)2.3 mphOvercast
8:30 AM44.6 °F42.8 °F93 %30.38 in15.0 miVariable2.3 mphOvercast
9:30 AM46.0 °F44.0 °F89 %30.41 in7.0 miWSW (250°)2.3 mphRainLight Drizzle
9:30 AM46.4 °F42.8 °F87 %30.41 in8.0 miWSW (250°)3.5 mphLight Drizzle
9:45 AM44.6 °F44.6 °F100 %30.41 in2.0 miWNW (290°)2.3 mphLight Drizzle
10:30 AM46.4 °F44.6 °F93 %30.42 in3.0 miCalmLight Drizzle
11:01 AM46.4 °F44.6 °F93 %30.41 in3.0 miNW (320°)3.5 mphRainLight Rain
11:30 AM46.4 °F44.6 °F93 %30.43 in3.0 miVariable2.3 mphRainLight Rain
12:30 PM48.2 °F46.4 °F93 %30.43 in6.0 miNE (40°)4.6 mphRainLight Rain
1:30 PM50.0 °F46.4 °F87 %30.44 in6.0 miNorth (360°)3.5 mphRainLight Rain
2:30 PM50.0 °F46.4 °F87 %30.43 in6.0 miNE (50°)5.8 mphRainLight Rain
3:30 PM49.0 °F49.0 °F99 %30.42 in7.0 miNNE (20°)6.9 mphRainLight Rain
3:30 PM50.0 °F48.2 °F94 %30.41 in8.0 miNNE (20°)9.2 mphRainLight Rain
4:30 PM50.0 °F48.2 °F94 %30.42 in4.0 miNorth (10°)6.9 mphRainLight Rain
5:30 PM46.4 °F44.6 °F93 %30.44 in4.0 miNNE (30°)18.4 mph24.2 mphRainLight Rain
6:30 PM42.8 °F41.0 °F93 %30.45 in4.0 miNNE (30°)16.1 mph24.2 mphRainLight Rain
7:30 PM41.0 °F39.2 °F93 %30.46 in4.0 miNNE (30°)16.1 mph27.6 mphRainLight Rain
8:06 PM39.2 °F37.4 °F93 %30.48 in2.5 miNNE (30°)12.7 mph21.9 mphRainLight Rain
8:30 PM37.4 °F37.4 °F100 %30.48 in2.5 miNNE (30°)13.8 mphRainLight Rain
9:30 PM35.0 °F33.0 °F91 %30.49 in2.0 miNE (40°)18.4 mphRainLight Rain
9:30 PM33.8 °F33.8 °F100 %30.49 in2.5 miNE (40°)23.0 mphRainLight Rain
10:30 PM33.8 °F32.0 °F93 %30.48 in2.5 miNE (40°)18.4 mph26.5 mphRainLight Rain
11:30 PM33.8 °F32.0 °F93 %30.48 in2.5 miNE (40°)16.1 mph23.0 mphRainLight Rain
Hourly data recorded from CYDF, located miles away from Corner Brook, Newfoundland







STORIES FROM OUR PARTNERS